Wind_Speed
4 2 3 5 7 8 9 9 7 6 7 8 9 9 9 9 10 11 11 11 13 13 10 8 7 9 10 10 7 4 4 7 6 9 11 12 16 19 22 21 18 13 13 15 18
2 1 3 5 7 9 8 7 6 6 8 9 10 10 11 10 10 8 9 9 10 10 10 9 9 10 10 11 9 6 5 4 2 3 10 13 16 21 24 23 23 13 8 10 12
1 3 4 5 8 8 6 5 4 6 8 10 10 10 10 10 9 8 8 7 7 8 8 7 7 8 7 7 6 4 2 4 6 3 5 12 15 22 19 21 20 13 2 8 8
2 3 5 6 9 8 5 3 3 4 6 8 9 9 9 10 10 8 7 6 5 6 6 5 4 6 6 5 3 2 4 7 8 5 5 7 8 9 9 11 11 1 2 3 4
3 4 7 8 9 8 5 3 2 3 4 5 7 6 8 8 8 8 7 5 4 4 5 4 3 4 5 7 8 6 7 7 8 8 8 6 9 9 10 9 8 5 1 2 3
5 6 7 8 9 8 5 3 2 2 4 5 6 7 7 8 8 8 8 6 5 5 4 4 4 6 7 8 9 9 9 8 9 10 10 7 11 10 9 6 5 5 5 5 2
6 7 7 8 8 9 7 4 4 4 5 6 8 8 8 9 9 9 9 8 9 8 6 6 7 8 8 10 10 11 12 10 9 9 8 9 12 12 13 9 5 5 9 7 7
7 8 8 9 10 9 8 7 7 6 7 8 10 10 11 11 11 10 10 12 11 10 9 9 9 9 9 9 10 11 13 13 11 7 8 10 12 13 16 17 16 13 13 12 11
9 10 10 11 11 9 9 10 11 10 10 11 12 11 11 12 12 14 15 15 16 13 12 11 10 9 10 9 9 11 12 13 14 16 12 11 13 17 20 23 23 21 18 20 18
11 11 12 12 12 11 11 12 12 13 12 13 14 13 13 12 13 14 17 20 17 16 14 11 10 11 12 11 10 11 13 13 14 16 18 18 18 21 20 19 21 22 22 23 23
13 14 16 15 14 14 14 14 14 13 15 15 13 13 15 16 17 19 23 24 19 15 14 14 13 13 12 11 10 9 9 10 11 11 17 19 19 20 20 20 16 15 16 20 24
17 17 18 18 17 16 15 16 16 17 17 16 16 16 18 19 21 24 26 21 16 14 15 15 14 13 13 14 13 11 12 13 14 15 17 18 18 17 13 13 12 11 12 15 18
19 19 18 19 18 18 18 18 18 18 19 19 19 19 21 22 25 25 19 14 13 14 16 16 16 16 16 17 16 13 14 15 17 17 18 18 17 17 17 17 16 14 12 13 15
21 21 20 19 19 19 19 20 19 19 21 21 21 23 24 23 25 19 15 15 14 15 16 16 18 17 18 19 19 18 18 18 19 20 22 21 19 20 19 18 20 18 18 18 18
20 22 20 20 20 19 20 21 21 20 23 23 23 22 21 20 19 16 16 17 16 17 18 18 19 21 22 22 21 20 20 21 21 22 24 24 21 22 22 22 22 19 16 16 18
21 21 22 21 20 21 21 22 23 22 22 23 22 19 18 16 16 17 16 17 18 19 21 20 20 22 23 22 21 21 23 22 23 26 25 24 24 22 24 23 22 19 19 18 19
24 22 23 22 22 22 22 23 24 22 22 20 16 17 18 17 17 16 16 16 18 19 22 21 19 18 18 22 25 25 26 27 29 28 25 26 25 25 27 25 26 22 22 23 20
24 21 21 21 21 22 21 22 23 22 20 19 20 20 20 20 20 20 20 19 17 16 17 17 17 18 20 24 27 27 28 29 30 29 28 27 27 24 25 27 27 28 28 25 25
27 25 24 24 24 24 24 25 25 23 23 22 23 25 22 22 22 22 23 25 23 19 19 21 21 22 23 25 27 30 30 29 29 29 29 28 28 24 27 27 28 29 27 29 29
33 32 31 29 29 29 29 29 29 27 27 26 26 27 26 24 25 25 26 26 25 23 21 22 24 24 25 25 27 28 29 31 31 32 32 32 31 28 29 30 32 30 27 27 30
32 33 32 31 30 30 30 30 31 29 29 28 27 28 27 27 27 27 29 29 26 26 24 23 23 26 25 24 26 28 29 30 31 32 34 36 35 31 37 37 38 33 29 26 29
33 33 33 33 32 31 30 31 31 29 28 28 28 29 28 28 28 29 29 28 27 27 27 25 26 26 27 27 28 29 28 30 34 35 35 37 37 37 41 41 42 38 33 30 31
35 34 33 34 33 33 32 31 31 30 29 28 28 28 28 29 29 28 27 28 29 29 29 29 28 29 30 31 32 34 33 32 34 36 35 41 39 38 42 44 42 40 34 33 32
38 38 36 35 34 35 35 34 33 33 34 33 32 31 31 31 30 30 27 27 28 30 31 32 31 32 32 34 37 36 34 32 35 38 39 38 40 34 40 41 40 40 36 35 34
41 40 40 38 37 37 37 37 37 37 37 36 36 34 34 33 32 30 29 30 31 33 35 35 36 36 36 38 39 38 36 34 38 37 42 37 38 34 37 36 37 35 32 35 36
45 43 42 41 40 39 39 39 39 39 39 39 39 39 36 36 35 33 33 33 35 36 37 38 37 38 39 37 41 42 38 38 39 40 42 40 39 37 33 34 31 31 34 35 35
44 44 44 43 42 42 41 40 40 40 40 41 41 40 40 39 37 36 37 38 39 37 36 37 39 41 39 37 41 43 36 39 38 36 39 41 37 32 30 29 30 33 35 36 36
Wind_Direction
110 74 17 359 349 345 348 358 21 39 36 36 37 36 39 41 43 40 44 48 58 67 70 64 49 40 41 40 33 3 327 332 343 265 300 300 303 321 324 326 329 344 2 21 11
139 2 340 342 340 344 350 8 13 32 39 37 34 37 43 47 40 41 47 46 52 66 70 68 60 56 53 63 64 47 27 35 32 9 298 294 279 298 312 311 308 325 342 27 356
315 325 331 338 341 343 350 11 19 24 41 40 40 42 46 48 41 33 36 39 46 59 69 60 46 50 61 64 63 71 46 0 32 31 217 231 253 268 277 281 295 307 339 40 348
304 330 328 333 340 336 348 6 20 24 44 33 37 40 41 36 45 38 31 31 42 50 58 54 42 33 20 42 50 344 334 347 359 6 337 321 285 305 303 325 326 225 138 64 301
301 312 318 324 331 332 332 344 6 23 27 18 6 13 17 18 17 5 14 20 15 11 26 41 21 10 5 360 345 338 337 337 343 348 345 332 305 289 329 340 350 329 47 106 81
294 306 311 317 324 320 309 310 318 336 328 330 325 332 342 352 360 360 356 350 340 338 337 338 326 330 346 344 333 328 331 340 334 339 340 318 294 309 317 322 350 292 303 268 246
286 301 303 310 317 309 288 275 281 288 307 307 301 299 308 320 332 340 342 345 330 312 301 304 302 315 327 334 330 327 327 333 331 355 346 306 296 309 302 291 288 291 274 273 274
286 288 292 300 303 291 268 266 271 276 292 302 301 293 288 296 306 314 314 321 320 317 293 292 294 305 315 322 325 320 322 326 329 339 307 287 302 299 297 297 306 305 292 275 264
280 279 285 296 295 285 268 265 266 273 284 294 299 299 288 286 293 302 308 310 311 306 300 292 293 299 306 309 310 309 316 321 329 326 319 298 293 291 296 297 295 298 289 279 272
277 278 280 290 290 283 272 271 271 273 281 285 293 296 289 286 291 298 303 305 299 294 294 291 292 300 304 306 307 310 312 316 328 325 313 312 307 305 302 292 281 278 281 277 270
273 276 279 285 282 277 273 271 274 276 278 284 292 292 289 286 290 296 300 303 293 282 282 285 294 300 302 299 300 299 293 296 302 296 294 302 303 299 295 293 283 262 257 264 273
270 271 277 283 281 277 273 270 272 279 283 284 289 291 289 288 294 296 299 293 284 280 280 287 299 299 296 292 294 290 282 293 293 290 292 297 303 302 304 289 284 270 252 242 243
271 273 276 279 279 277 276 274 273 275 277 281 287 290 289 292 295 295 293 281 269 270 278 291 297 301 299 294 293 283 277 285 290 296 299 303 304 310 315 319 322 313 295 267 251
273 274 274 270 274 276 275 273 272 273 277 284 288 289 290 293 290 291 281 269 266 271 279 284 290 293 293 290 287 287 284 291 296 304 303 305 307 315 320 320 318 320 316 304 295
269 272 271 273 274 272 274 275 275 275 281 286 291 291 293 291 290 284 276 272 273 275 278 279 282 286 290 286 282 286 291 297 298 299 301 306 312 317 317 318 319 316 302 290 283
268 271 276 277 277 278 279 279 279 281 284 286 291 293 291 288 290 289 281 280 279 279 276 277 280 282 282 280 281 283 287 288 291 297 304 306 310 314 312 311 310 308 301 294 289
272 271 273 277 279 279 281 282 283 283 285 287 288 287 286 285 290 289 285 278 272 275 279 284 281 274 272 276 281 286 292 297 300 300 304 306 305 306 308 307 310 309 307 301 296
276 276 275 274 275 277 279 279 280 284 286 287 285 282 283 280 277 278 279 276 274 274 274 278 277 271 267 275 279 284 288 292 296 299 301 300 304 307 311 310 312 315 314 305 299
273 273 274 274 273 274 276 278 279 279 279 278 276 275 272 271 272 275 276 275 276 275 271 270 267 268 271 274 280 286 289 294 298 298 301 304 308 312 311 309 309 309 305 298 298
269 271 271 271 271 271 273 274 275 274 274 274 272 273 274 272 271 272 272 275 279 277 274 274 275 276 279 281 283 285 292 297 300 303 306 309 308 314 308 303 306 309 307 296 293
267 269 270 270 269 269 271 272 273 273 274 274 273 272 272 273 273 273 276 278 280 282 283 281 278 280 279 280 282 288 293 300 303 302 303 306 307 313 306 306 307 309 307 296 290
268 269 270 270 270 269 269 269 271 272 271 271 269 270 271 272 271 273 277 281 284 283 283 281 281 280 283 288 291 293 296 300 302 303 303 303 304 306 307 308 312 312 307 298 294
266 267 268 269 269 268 266 266 268 269 268 269 269 270 270 270 271 273 276 279 282 283 284 283 282 286 289 293 296 299 303 306 303 304 307 302 311 308 306 310 309 307 302 296 292
267 267 265 264 264 264 264 262 263 265 266 266 267 267 268 269 270 274 274 274 275 278 279 281 283 286 290 293 295 297 301 304 301 303 303 311 302 304 302 310 306 303 300 294 291
265 264 265 263 261 259 259 260 261 262 263 265 265 265 267 267 267 267 267 269 270 271 274 278 283 288 292 294 295 297 300 299 299 303 304 305 305 302 306 302 300 302 298 293 292
263 263 262 262 261 258 257 258 259 260 260 261 265 265 264 264 265 267 267 268 270 273 277 280 284 286 288 294 294 296 301 299 300 303 304 304 306 305 303 298 301 301 303 297 293
261 260 260 260 259 259 257 256 256 258 258 260 261 261 263 264 264 265 266 267 268 270 274 280 282 283 288 289 290 295 299 297 299 301 303 303 304 299 296 298 300 302 298 300 298
Height
5916 5916 5917 5917 5917 5916 5916 5915 5914 5913 5913 5912 5910 5910 5909 5909 5908 5908 5908 5908 5907 5907 5906 5906 5906 5906 5906 5906 5906 5907 5908 5907 5907 5907 5907 5907 5905 5905 5905 5905 5903 5902 5900 5899 5898
5916 5916 5917 5917 5916 5916 5915 5914 5913 5913 5912 5911 5911 5910 5910 5909 5909 5909 5910 5909 5909 5908 5907 5907 5907 5907 5907 5906 5906 5906 5906 5906 5905 5905 5905 5905 5906 5904 5903 5903 5902 5902 5901 5899 5898
5916 5916 5916 5916 5916 5915 5914 5914 5913 5913 5912 5912 5911 5911 5911 5910 5910 5910 5910 5910 5909 5909 5909 5908 5908 5908 5907 5907 5907 5906 5905 5904 5905 5904 5903 5902 5902 5902 5901 5901 5900 5902 5900 5899 5899
5915 5915 5915 5915 5914 5914 5914 5913 5913 5913 5912 5912 5912 5912 5911 5911 5912 5910 5910 5910 5910 5909 5909 5909 5909 5908 5907 5907 5907 5907 5905 5905 5905 5905 5903 5901 5900 5900 5900 5900 5899 5901 5899 5898 5898
5914 5914 5914 5913 5913 5912 5913 5913 5913 5913 5912 5912 5912 5912 5912 5912 5912 5910 5910 5910 5910 5910 5909 5908 5908 5908 5908 5907 5906 5906 5906 5905 5904 5903 5902 5902 5900 5899 5899 5899 5900 5900 5898 5898 5897
5912 5913 5912 5912 5912 5911 5911 5912 5912 5912 5912 5912 5911 5911 5911 5911 5910 5910 5909 5909 5909 5909 5909 5908 5907 5906 5906 5905 5904 5904 5903 5904 5903 5901 5900 5899 5896 5898 5899 5899 5899 5898 5898 5897 5896
5911 5911 5911 5910 5910 5910 5910 5911 5911 5911 5911 5911 5910 5910 5910 5911 5909 5908 5908 5908 5908 5908 5907 5906 5905 5905 5904 5904 5902 5901 5901 5901 5901 5900 5898 5897 5895 5895 5896 5897 5897 5896 5896 5896 5895
5909 5909 5909 5909 5909 5909 5908 5909 5910 5910 5909 5909 5909 5909 5908 5908 5908 5907 5907 5906 5906 5906 5905 5904 5904 5904 5903 5903 5901 5900 5899 5897 5897 5898 5896 5894 5895 5894 5892 5892 5892 5892 5892 5894 5894
5907 5907 5907 5907 5906 5907 5906 5907 5907 5907 5907 5907 5907 5906 5906 5906 5906 5905 5905 5904 5903 5902 5901 5901 5902 5902 5902 5901 5901 5899 5897 5896 5895 5893 5893 5893 5892 5890 5889 5887 5888 5888 5889 5889 5889
5904 5903 5904 5904 5904 5904 5904 5904 5904 5905 5905 5905 5904 5905 5904 5903 5902 5902 5902 5901 5901 5899 5899 5898 5899 5899 5899 5899 5899 5897 5895 5894 5894 5893 5889 5888 5887 5886 5886 5885 5885 5885 5884 5884 5884
5900 5900 5900 5901 5901 5901 5901 5901 5903 5903 5902 5902 5902 5901 5900 5900 5900 5900 5898 5897 5896 5897 5895 5895 5896 5896 5896 5895 5895 5895 5894 5893 5892 5891 5888 5886 5885 5884 5882 5880 5879 5879 5879 5879 5879
5896 5897 5896 5896 5897 5897 5897 5897 5898 5899 5898 5898 5898 5898 5897 5897 5896 5895 5893 5893 5892 5892 5891 5893 5893 5893 5892 5891 5891 5891 5890 5889 5889 5888 5886 5884 5882 5880 5878 5876 5875 5874 5874 5873 5874
5891 5892 5892 5891 5892 5893 5893 5894 5894 5894 5894 5895 5894 5894 5893 5893 5891 5889 5888 5888 5889 5889 5888 5888 5889 5889 5888 5886 5886 5887 5886 5886 5885 5884 5883 5880 5878 5875 5873 5869 5867 5867 5867 5867 5867
5886 5887 5887 5888 5889 5888 5888 5889 5890 5890 5890 5891 5891 5889 5888 5888 5886 5885 5885 5886 5886 5886 5886 5886 5885 5885 5884 5882 5881 5881 5880 5880 5880 5879 5876 5875 5874 5869 5867 5865 5863 5862 5861 5860 5858
5881 5881 5882 5882 5883 5883 5884 5884 5884 5886 5886 5886 5885 5884 5883 5883 5882 5882 5881 5881 5882 5883 5883 5884 5882 5881 5880 5878 5877 5876 5875 5875 5874 5873 5871 5868 5866 5864 5862 5859 5857 5857 5855 5854 5852
5875 5876 5876 5877 5877 5878 5878 5878 5879 5881 5880 5881 5880 5879 5879 5878 5877 5877 5877 5878 5879 5878 5877 5878 5878 5877 5875 5873 5872 5871 5870 5869 5868 5867 5865 5862 5861 5860 5857 5855 5853 5852 5849 5847 5844
5869 5870 5871 5871 5872 5872 5873 5873 5875 5874 5876 5876 5875 5875 5874 5874 5873 5873 5873 5874 5874 5874 5872 5872 5872 5871 5870 5868 5865 5864 5864 5862 5861 5860 5859 5856 5855 5853 5850 5848 5845 5844 5841 5837 5836
5862 5864 5865 5866 5866 5866 5867 5868 5869 5869 5870 5871 5870 5870 5869 5869 5869 5868 5868 5868 5869 5870 5869 5868 5867 5866 5865 5862 5860 5860 5859 5857 5854 5854 5853 5851 5850 5847 5843 5839 5836 5833 5830 5828 5825
5855 5857 5858 5860 5860 5860 5862 5862 5863 5863 5864 5864 5864 5862 5864 5864 5864 5864 5863 5862 5863 5864 5865 5863 5862 5859 5858 5856 5856 5853 5852 5851 5849 5847 5845 5844 5841 5840 5835 5832 5829 5826 5823 5819 5815
5848 5849 5850 5852 5853 5853 5854 5855 5855 5856 5856 5856 5856 5856 5856 5857 5857 5856 5855 5855 5855 5856 5857 5857 5855 5853 5851 5850 5848 5847 5846 5844 5842 5839 5836 5835 5834 5833 5829 5826 5822 5819 5815 5811 5806
5840 5840 5842 5843 5845 5846 5846 5846 5846 5847 5848 5849 5849 5849 5849 5849 5849 5848 5848 5848 5848 5848 5848 5848 5849 5847 5846 5844 5842 5841 5839 5837 5835 5833 5830 5827 5828 5824 5820 5817 5814 5810 5807 5803 5798
5831 5832 5833 5834 5837 5837 5838 5837 5838 5839 5840 5841 5841 5841 5842 5842 5842 5841 5841 5841 5841 5840 5840 5840 5838 5838 5838 5837 5836 5834 5833 5831 5827 5825 5823 5819 5822 5814 5809 5806 5803 5800 5796 5792 5787
5821 5822 5824 5825 5827 5828 5829 5829 5830 5831 5832 5833 5834 5835 5835 5835 5835 5835 5835 5834 5833 5832 5831 5831 5831 5831 5830 5830 5827 5825 5824 5822 5818 5816 5815 5809 5809 5805 5799 5798 5794 5790 5786 5781 5777
5810 5812 5814 5815 5817 5818 5819 5821 5822 5822 5823 5824 5825 5826 5827 5828 5828 5828 5828 5828 5827 5825 5824 5823 5823 5823 5823 5821 5818 5817 5817 5814 5809 5807 5804 5804 5798 5798 5791 5788 5784 5779 5776 5771 5767
5799 5800 5802 5805 5807 5808 5809 5811 5812 5814 5815 5815 5816 5817 5818 5818 5819 5819 5819 5819 5818 5817 5816 5816 5816 5815 5815 5812 5809 5809 5809 5805 5801 5799 5795 5795 5790 5786 5783 5779 5775 5771 5767 5762 5757
5786 5789 5790 5792 5795 5797 5799 5801 5802 5803 5804 5805 5806 5807 5808 5808 5810 5811 5810 5810 5809 5808 5808 5808 5809 5807 5807 5805 5799 5799 5800 5795 5792 5789 5787 5784 5782 5777 5773 5769 5766 5761 5756 5752 5748
5772 5775 5778 5781 5782 5784 5787 5790 5792 5793 5793 5794 5795 5797 5798 5799 5799 5800 5801 5801 5801 5802 5801 5801 5799 5798 5800 5798 5792 5792 5791 5785 5782 5780 5777 5774 5773 5769 5766 5762 5758 5754 5747 5742 5739